カタログに戻る

CZ-4 DEB

運用中SSO
NORAD 26132·DEBRIS·🇨🇳 China

打ち上げ Oct 14, 1999 から Taiyuan Satellite Launch Center

Loading…

次のパス (今後24時間)

TLE

最新Source: Space-Track

元期: Sep 14, 2026, 05:01 UTC

1 26132U 99057U   26257.20912675  .00002866  00000-0  60880-3 0  9995
2 26132  98.6412 354.9599 0098981   5.3655  24.2889 14.56917527380864

AllMySatでCZ-4 DEBをリアルタイム追跡

Download on the App Store